• In Belgien
  • Länderverzeichnis
  • Für 7 Tage
  • Wassertemperatur
  • Satellitenkarten
  • Wetterkarte
  • Widgets
  • user-avatar
    Anmelden

    Stündliche Wetter Newcastle

    Heute, 18 Oktober, Mittwoch

    Zeit Temperatur Niederschläge Wind Luftdruck Luftfeuchtigkeit
    00:00 +16°C° 0 mm 3 m/S 770 mmHg 94%
    01:00 +16°C° 0 mm 3 m/S 770 mmHg 94%
    02:00 +16°C° 0 mm 3 m/S 769 mmHg 94%
    03:00 +16°C° 0 mm 3 m/S 769 mmHg 94%
    04:00 +16°C° 0 mm 3 m/S 769 mmHg 96%
    05:00 +17°C° 0 mm 3 m/S 769 mmHg 91%
    06:00 +18°C° 0 mm 4 m/S 769 mmHg 86%
    07:00 +20°C° 0 mm 4 m/S 770 mmHg 82%
    08:00 +21°C° 0 mm 5 m/S 770 mmHg 73%
    09:00 +23°C° 0 mm 5 m/S 770 mmHg 65%
    10:00 +25°C° 0 mm 5 m/S 770 mmHg 56%
    11:00 +26°C° 0 mm 5 m/S 769 mmHg 55%
    12:00 +26°C° 0 mm 6 m/S 769 mmHg 53%
    13:00 +26°C° 0 mm 6 m/S 768 mmHg 52%
    14:00 +26°C° 0 mm 6 m/S 768 mmHg 53%
    15:00 +26°C° 0 mm 6 m/S 768 mmHg 54%
    16:00 +26°C° 0 mm 6 m/S 767 mmHg 54%
    17:00 +23°C° 0 mm 6 m/S 768 mmHg 60%
    18:00 +22°C° 0 mm 6 m/S 768 mmHg 67%
    19:00 +20°C° 0 mm 6 m/S 769 mmHg 73%
    20:00 +20°C° 0 mm 6 m/S 769 mmHg 75%
    21:00 +19°C° 0 mm 6 m/S 769 mmHg 78%
    22:00 +19°C° 0 mm 6 m/S 769 mmHg 81%
    23:00 +17°C° 0 mm 6 m/S 769 mmHg 83%

    Morgen, 19 Oktober, Donnerstag

    Zeit Temperatur Niederschläge Wind Luftdruck Luftfeuchtigkeit
    00:00 +17°C° 0 mm 5 m/S 769 mmHg 84%
    01:00 +16°C° 0 mm 5 m/S 769 mmHg 86%
    02:00 +16°C° 0 mm 5 m/S 769 mmHg 87%
    03:00 +16°C° 0 mm 5 m/S 769 mmHg 89%
    04:00 +15°C° 0 mm 4 m/S 768 mmHg 90%
    05:00 +17°C° 0 mm 4 m/S 768 mmHg 84%
    06:00 +19°C° 0 mm 4 m/S 768 mmHg 79%
    07:00 +20°C° 0 mm 4 m/S 769 mmHg 73%
    08:00 +22°C° 0 mm 4 m/S 768 mmHg 64%
    09:00 +25°C° 0 mm 4 m/S 768 mmHg 55%
    10:00 +28°C° 0 mm 4 m/S 768 mmHg 46%
    11:00 +29°C° 0 mm 5 m/S 767 mmHg 42%
    12:00 +30°C° 0 mm 5 m/S 766 mmHg 39%
    13:00 +33°C° 0 mm 6 m/S 765 mmHg 35%
    14:00 +32°C° 0 mm 6 m/S 765 mmHg 37%
    15:00 +32°C° 0 mm 6 m/S 764 mmHg 38%
    16:00 +32°C° 0 mm 7 m/S 764 mmHg 40%
    17:00 +28°C° 0 mm 7 m/S 764 mmHg 50%
    18:00 +26°C° 0 mm 7 m/S 764 mmHg 59%
    19:00 +23°C° 0 mm 7 m/S 764 mmHg 68%
    20:00 +22°C° 0 mm 6 m/S 764 mmHg 72%
    21:00 +21°C° 0 mm 6 m/S 764 mmHg 76%
    22:00 +20°C° 0 mm 6 m/S 764 mmHg 80%
    23:00 +20°C° 0 mm 5 m/S 764 mmHg 80%

    übermorgen, 20 Oktober, Freitag

    Zeit Temperatur Niederschläge Wind Luftdruck Luftfeuchtigkeit
    00:00 +19°C° 0 mm 4 m/S 763 mmHg 79%
    01:00 +19°C° 0 mm 4 m/S 763 mmHg 78%
    02:00 +19°C° 0 mm 3 m/S 763 mmHg 76%
    03:00 +19°C° 0 mm 3 m/S 763 mmHg 74%
    04:00 +19°C° 0 mm 2 m/S 762 mmHg 71%
    05:00 +19°C° 0,9 mm 2 m/S 763 mmHg 76%
    06:00 +19°C° 0,9 mm 3 m/S 763 mmHg 81%
    07:00 +20°C° 0,9 mm 3 m/S 763 mmHg 86%
    08:00 +20°C° 1,6 mm 3 m/S 764 mmHg 89%
    09:00 +20°C° 1,6 mm 3 m/S 764 mmHg 92%
    10:00 +20°C° 1,6 mm 3 m/S 764 mmHg 95%
    11:00 +20°C° 0,6 mm 3 m/S 764 mmHg 94%
    12:00 +20°C° 0,6 mm 4 m/S 764 mmHg 94%
    13:00 +20°C° 0,6 mm 5 m/S 763 mmHg 93%
    14:00 +19°C° 0,7 mm 6 m/S 764 mmHg 94%
    15:00 +17°C° 0,7 mm 6 m/S 764 mmHg 95%
    16:00 +16°C° 0,7 mm 7 m/S 764 mmHg 96%
    17:00 +16°C° 0,3 mm 7 m/S 764 mmHg 96%
    18:00 +16°C° 0,3 mm 6 m/S 764 mmHg 96%
    19:00 +15°C° 0,3 mm 6 m/S 765 mmHg 96%
    20:00 +15°C° 0,2 mm 6 m/S 765 mmHg 95%
    21:00 +15°C° 0,2 mm 6 m/S 766 mmHg 95%
    22:00 +15°C° 0,2 mm 5 m/S 766 mmHg 94%
    23:00 +15°C° 0,2 mm 6 m/S 766 mmHg 93%

    21 Oktober, Samstag

    Zeit Temperatur Niederschläge Wind Luftdruck Luftfeuchtigkeit
    00:00 +15°C° 0,2 mm 6 m/S 765 mmHg 91%
    01:00 +14°C° 0,2 mm 6 m/S 765 mmHg 89%
    02:00 +14°C° 0,1 mm 5 m/S 765 mmHg 88%
    03:00 +14°C° 0,1 mm 5 m/S 765 mmHg 87%
    04:00 +13°C° 0,1 mm 5 m/S 765 mmHg 86%
    05:00 +14°C° 0 mm 5 m/S 765 mmHg 83%
    06:00 +14°C° 0 mm 5 m/S 765 mmHg 81%
    07:00 +15°C° 0 mm 4 m/S 766 mmHg 78%
    08:00 +16°C° 0 mm 5 m/S 765 mmHg 71%
    09:00 +17°C° 0 mm 5 m/S 765 mmHg 64%
    10:00 +19°C° 0 mm 5 m/S 765 mmHg 57%
    11:00 +19°C° 0 mm 5 m/S 764 mmHg 56%
    12:00 +19°C° 0 mm 5 m/S 764 mmHg 55%
    13:00 +20°C° 0 mm 5 m/S 763 mmHg 53%
    14:00 +19°C° 0 mm 4 m/S 763 mmHg 54%
    15:00 +19°C° 0 mm 4 m/S 762 mmHg 55%
    16:00 +19°C° 0 mm 4 m/S 762 mmHg 55%
    17:00 +17°C° 0 mm 3 m/S 762 mmHg 63%
    18:00 +16°C° 0 mm 3 m/S 763 mmHg 71%
    19:00 +14°C° 0 mm 2 m/S 763 mmHg 79%
    20:00 +13°C° 0 mm 2 m/S 763 mmHg 82%
    21:00 +12°C° 0 mm 1 m/S 763 mmHg 85%
    22:00 +12°C° 0 mm 1 m/S 763 mmHg 88%
    23:00 +12°C° 0 mm 1 m/S 763 mmHg 89%

    22 Oktober, Sonntag

    Zeit Temperatur Niederschläge Wind Luftdruck Luftfeuchtigkeit
    00:00 +11°C° 0 mm 1 m/S 762 mmHg 91%
    01:00 +11°C° 0 mm 1 m/S 762 mmHg 92%
    02:00 +10°C° 0 mm 2 m/S 761 mmHg 92%
    03:00 +10°C° 0 mm 2 m/S 761 mmHg 92%
    04:00 +10°C° 0 mm 2 m/S 761 mmHg 92%
    05:00 +12°C° 0 mm 2 m/S 761 mmHg 85%
    06:00 +14°C° 0 mm 2 m/S 761 mmHg 78%
    07:00 +15°C° 0 mm 2 m/S 761 mmHg 71%
    08:00 +18°C° 0 mm 2 m/S 761 mmHg 62%
    09:00 +22°C° 0 mm 1 m/S 760 mmHg 52%
    10:00 +25°C° 0 mm 1 m/S 760 mmHg 43%
    11:00 +25°C° 0 mm 1 m/S 759 mmHg 43%
    12:00 +25°C° 0 mm 2 m/S 759 mmHg 43%
    13:00 +25°C° 0 mm 2 m/S 758 mmHg 43%
    14:00 +24°C° 0 mm 2 m/S 758 mmHg 45%
    15:00 +24°C° 0 mm 3 m/S 757 mmHg 48%
    16:00 +22°C° 0 mm 3 m/S 757 mmHg 50%
    17:00 +21°C° 0 mm 3 m/S 758 mmHg 58%
    18:00 +19°C° 0 mm 3 m/S 758 mmHg 67%
    19:00 +17°C° 0 mm 3 m/S 759 mmHg 75%
    20:00 +17°C° 0,2 mm 3 m/S 759 mmHg 79%
    21:00 +16°C° 0,2 mm 3 m/S 759 mmHg 83%
    22:00 +16°C° 0,2 mm 2 m/S 759 mmHg 87%
    23:00 +15°C° 0,6 mm 2 m/S 759 mmHg 90%

    23 Oktober, Montag

    Zeit Temperatur Niederschläge Wind Luftdruck Luftfeuchtigkeit
    00:00 +15°C° 0,6 mm 2 m/S 759 mmHg 92%
    01:00 +14°C° 0,6 mm 1 m/S 759 mmHg 95%
    02:00 +14°C° 0,6 mm 2 m/S 759 mmHg 95%
    03:00 +14°C° 0,6 mm 2 m/S 760 mmHg 95%
    04:00 +14°C° 0,6 mm 2 m/S 760 mmHg 96%
    05:00 +15°C° 0,1 mm 2 m/S 760 mmHg 92%
    06:00 +16°C° 0,1 mm 2 m/S 761 mmHg 88%
    07:00 +17°C° 0,1 mm 2 m/S 761 mmHg 84%
    08:00 +18°C° 0,3 mm 3 m/S 761 mmHg 80%
    09:00 +19°C° 0,3 mm 3 m/S 761 mmHg 75%
    10:00 +20°C° 0,3 mm 4 m/S 762 mmHg 70%
    11:00 +21°C° 0,1 mm 4 m/S 761 mmHg 65%
    12:00 +22°C° 0,1 mm 4 m/S 761 mmHg 60%
    13:00 +22°C° 0,1 mm 5 m/S 761 mmHg 56%
    14:00 +22°C° 0 mm 4 m/S 761 mmHg 57%
    15:00 +22°C° 0 mm 4 m/S 761 mmHg 58%
    16:00 +21°C° 0 mm 4 m/S 761 mmHg 59%
    17:00 +19°C° 0 mm 3 m/S 762 mmHg 68%
    18:00 +17°C° 0 mm 2 m/S 762 mmHg 77%
    19:00 +15°C° 0 mm 1 m/S 763 mmHg 86%
    20:00 +15°C° 0 mm 1 m/S 763 mmHg 89%
    21:00 +14°C° 0 mm 1 m/S 763 mmHg 92%
    22:00 +13°C° 0 mm 1 m/S 763 mmHg 95%
    23:00 +13°C° 0 mm 1 m/S 763 mmHg 95%
    Mehr zeigen